Location: *
(48.0931°N, 4.1742°W)
Time: 05:31:59
(UTC+00:00)

Daily predictions for brighter satellites

Satellite Brightness Start Highest point End
(mag) Time Altitude Azimuth Time Altitude Azimuth Time Altitude Azimuth
Cosmos 1869 Rocket 3.8 00:07:39 49° SW 00:08:32 61° WNW 00:12:53 10° N
Cosmos 2297 4.3 00:05:08 10° NW 00:10:26 42° WSW 00:11:44 37° SW
Cosmos 2278 Rocket 4.2 00:08:13 10° WNW 00:11:10 14° W 00:12:51 13° WSW
ISS -2.9 00:11:38 10° WNW 00:14:01 43° WNW 00:14:01 43° WNW
ERS-2 2.0 00:15:34 78° W 00:15:34 78° W 00:19:13 10° NNW
BREEZE-M DEB (TANK) 3.9 00:03:11 10° W 00:15:40 75° S 00:19:17 13° ESE
Meteor 1-19 Rocket 4.1 00:12:05 10° N 00:17:35 84° ENE 00:19:16 47° SSE
Lacrosse 5 2.9 00:22:10 10° WNW 00:26:00 29° WSW 00:26:00 29° WSW
Cosmos 1486 Rocket 4.2 00:26:17 40° SW 00:28:09 70° WNW 00:33:27 10° NNE
Meteor 1-29 4.0 00:27:04 10° N 00:30:14 35° WNW 00:30:25 35° WNW
CSL-04 DEB 4.5 00:30:26 62° SSE 00:31:09 86° ENE 00:35:30 10° NNW
CENTAUR R/B 3.5 00:23:52 10° NW 00:31:37 62° NE 00:40:07 10° ESE
Cosmos 968 Rocket 3.4 00:31:05 51° S 00:32:15 69° ESE 00:37:22 10° NNE
SL-19 R/B 4.2 00:27:58 10° NNE 00:33:34 74° ESE 00:35:08 47° S
Helios 1B rocket 3.9 00:30:44 10° N 00:34:22 30° WNW 00:35:41 25° W
CZ-4C R/B 3.9 00:33:25 45° SE 00:34:29 59° ENE 00:38:54 10° N
NOSS 3-2 (A) 4.0 00:27:11 10° NW 00:34:40 82° SW 00:39:39 27° SSE
Cosmos 2369 Rocket 2.1 00:29:20 10° NNW 00:35:06 89° ENE 00:37:11 41° SSE
Mayak 1.3 00:34:13 10° NNW 00:36:39 15° WNW 00:39:05 10° W
Lacrosse 4 Rocket 3.0 00:34:45 18° W 00:37:23 33° NW 00:41:26 10° NNE
OPS 8737 4.5 00:39:01 79° NE 00:39:01 79° NE 00:42:02 10° NE
Unknown 4.5 00:40:04 36° ESE 00:40:04 36° ESE 00:42:58 10° ENE
ATLAS 3B R/B 2.9 00:33:12 10° NW 00:39:51 67° NE 00:45:45 14° SE
Cosmos 1503 Rocket 3.9 00:38:53 49° SSW 00:40:22 87° ESE 00:45:44 10° NNE
Cosmos 1674 Rocket 3.5 00:36:09 10° N 00:40:39 83° E 00:41:25 61° SSE
Meteor 1-11 Rocket 4.2 00:38:58 36° SE 00:40:47 50° E 00:46:20 10° NNE
Unknown 4.3 00:42:56 40° ESE 00:42:56 40° ESE 00:46:04 10° ENE
Iridium 2 3.7 00:42:49 68° W 00:42:55 69° W 00:46:43 10° N
Unknown 4.3 00:44:31 41° ESE 00:44:31 41° ESE 00:47:45 10° ENE
Cosmos 1733 Rocket 2.9 00:43:15 63° SSW 00:43:55 82° WNW 00:48:19 10° N
Okean 3 3.6 00:40:27 10° NNW 00:44:36 55° W 00:44:56 53° WSW
Unknown 4.2 00:46:07 43° ESE 00:46:07 43° ESE 00:49:26 10° ENE
Unknown 4.1 00:47:42 45° ESE 00:47:42 45° ESE 00:51:04 10° ENE
Unknown 3.8 00:48:22 52° E 00:48:22 52° E 00:51:32 10° ENE
Unknown 3.8 00:48:33 51° ESE 00:48:33 51° ESE 00:51:47 10° ENE
Unknown 4.0 00:49:20 49° ESE 00:49:20 49° ESE 00:52:52 10° ENE
Meteor 2-21 4.3 00:43:02 10° N 00:49:07 84° W 00:51:22 41° S
Unknown 4.0 00:50:54 48° ESE 00:50:54 48° ESE 00:54:25 10° ENE
Unknown 3.9 00:52:30 52° ESE 00:52:30 52° ESE 00:56:10 10° ENE
NOSS 2-2 (E) 3.1 00:52:00 76° SSE 00:52:10 79° SE 00:56:32 10° NE
Cosmos 1603 3.6 00:50:40 45° SSW 00:52:29 82° ESE 00:58:09 10° NNE
Unknown 3.9 00:54:03 52° ESE 00:54:03 52° ESE 00:57:44 10° ENE
Cosmos 1378 Rocket 3.4 00:50:05 10° N 00:54:26 81° E 00:55:10 60° SSE
COSMOS 2455 4.3 00:49:08 10° WSW 00:54:35 34° NW 01:00:03 10° NNE
Meteor 2-21 Rocket 4.4 00:48:50 10° N 00:54:56 86° E 00:57:23 39° SSE
Unknown 3.8 00:55:41 54° ESE 00:55:41 54° ESE 00:59:25 10° ENE
Cosmos 1500 3.3 00:58:10 59° ESE 00:58:23 61° E 01:02:11 10° NNE
Cosmos 783 Rocket 4.4 00:53:22 10° NNW 00:58:34 73° WSW 00:59:57 49° S
CZ-4B R/B 3.8 00:53:57 10° NNE 00:58:49 51° E 01:00:05 40° SE
Unknown 3.6 01:00:29 60° SE 01:00:29 60° SE 01:04:26 10° ENE
Unknown 3.2 01:01:40 84° ESE 01:01:40 84° ESE 01:05:22 10° ENE
Unknown 3.6 01:02:02 62° SE 01:02:02 62° SE 01:06:03 10° ENE
Cosmos 1354 Rocket 4.1 01:00:36 41° SW 01:02:25 69° WNW 01:07:44 10° NNE
USA 238 DEB 4.1 00:55:37 10° NW 01:02:29 50° WSW 01:05:02 36° SSW
USA 238 4.1 00:55:43 10° NW 01:02:35 50° WSW 01:05:09 36° S
Unknown 3.6 01:03:40 64° SE 01:03:40 64° SE 01:07:45 10° ENE
Unknown 3.5 01:05:17 66° SSE 01:05:18 66° SSE 01:09:27 10° ENE
ATLAS 2AS CENTAUR R/B 3.0 01:01:08 32° SSW 01:05:23 82° SE 01:13:29 10° NE
Cosmos 220 Rocket 3.9 01:00:56 10° NNW 01:05:23 82° WSW 01:06:10 59° S
Unknown 3.3 01:05:17 66° NW 01:05:28 68° NNW 01:08:55 10° ENE
SL-16 R/B 3.6 01:01:33 14° WSW 01:05:43 31° NW 01:10:47 10° NNE
Cosmos 1536 2.9 01:06:29 59° SE 01:06:58 66° E 01:10:59 10° NNE
Unknown 3.5 01:08:26 68° SSE 01:08:36 69° SSE 01:12:45 10° ENE
NOSS 2-2 (D) 3.1 01:08:49 70° SW 01:09:14 89° NW 01:13:33 10° NE
Unknown 3.5 01:10:01 68° S 01:10:17 71° SSE 01:14:27 10° ENE
Cosmos 883 Rocket 4.5 01:08:34 39° SSW 01:11:05 76° W 01:17:26 10° N
Unknown 3.4 01:11:38 68° S 01:11:56 72° SSE 01:16:05 10° ENE
Cosmos 2263 4.2 01:06:42 10° NNW 01:12:19 66° WSW 01:14:07 42° S
Cosmos 1908 Rocket 3.5 01:11:40 56° S 01:12:33 81° E 01:17:01 10° NNE
Cosmos 1656 Rocket 3.8 01:07:05 10° NNW 01:12:48 76° ENE 01:16:04 27° SE
Meteor 2-14 Rocket 4.5 01:07:07 10° NNW 01:13:06 65° W 01:15:21 39° SSW
Unknown 3.5 01:13:13 68° S 01:13:33 73° SSE 01:17:42 10° ENE
Unknown 3.5 01:14:50 67° SSW 01:15:16 76° SSE 01:19:26 10° ENE
Unknown 3.5 01:16:20 66° SSW 01:16:44 73° SSE 01:20:53 10° ENE
FALCON 9 DEB 3.6 01:16:26 48° WNW 01:17:04 59° NNW 01:20:29 10° ENE
Meteor 1-23 Rocket 4.3 01:11:12 10° N 01:17:04 79° ENE 01:19:49 33° SSE
Cosmos 1709 Rocket 4.0 01:11:25 10° NNW 01:17:33 66° W 01:19:55 38° SSW
Cosmos 1943 3.1 01:17:46 41° SSW 01:19:52 88° WNW 01:25:36 10° NNE
Unknown 3.5 01:19:30 64° SSW 01:20:02 76° SSE 01:24:12 10° ENE
SL-4 R/B 2.3 01:16:52 10° WNW 01:21:40 84° NNE 01:26:09 10° ESE
Unknown 3.5 01:21:08 63° SW 01:21:43 78° SSE 01:25:53 10° ENE
Meteor 2-4 Rocket 4.2 01:17:43 10° NNW 01:23:08 44° W 01:24:46 35° SW
Unknown 3.5 01:22:44 58° SW 01:23:30 84° SSE 01:27:41 10° ENE
Unknown 3.5 01:24:19 59° SW 01:25:02 81° SSE 01:29:13 10° ENE
Okean 2 Rocket 4.4 01:23:33 24° SE 01:25:15 31° E 01:29:11 10° NNE
Resurs 1-4 Rocket 3.3 01:20:41 10° NNE 01:25:27 33° E 01:28:00 22° SE
Unknown 3.5 01:25:54 57° SW 01:26:43 83° SSE 01:30:53 10° ENE
Cosmos 2098 Rocket 3.7 01:26:13 10° NNW 01:28:08 26° WNW 01:28:08 26° WNW
Unknown 3.5 01:29:05 53° WSW 01:30:01 86° SSE 01:34:12 10° ENE
H-2A R/B 2.6 01:29:09 28° SE 01:31:21 59° ENE 01:35:47 10° N
Unknown 3.5 01:30:42 51° WSW 01:31:42 88° SSE 01:35:52 10° ENE
Unknown 3.5 01:32:18 49° WSW 01:33:21 89° S 01:37:32 10° ENE
Unknown 3.5 01:33:52 48° WSW 01:34:59 89° NNW 01:39:10 10° ENE
Unknown 3.5 01:35:29 46° WSW 01:36:41 87° NNW 01:40:52 10° ENE
SL-16 R/B 2.8 01:33:25 19° SSE 01:37:57 69° ENE 01:44:07 10° NNW
Cosmos 1943 Rocket 3.1 01:34:05 10° NW 01:38:45 29° WSW 01:39:31 28° WSW
Unknown 4.0 01:37:14 27° W 01:38:48 50° NNW 01:42:16 10° ENE
Unknown 3.6 01:38:07 40° WSW 01:39:29 78° NNW 01:43:34 10° ENE
Cosmos 773 Rocket 4.0 01:35:01 10° NNW 01:40:12 60° WSW 01:41:56 39° SSW
Unknown 3.7 01:38:47 38° WSW 01:40:18 78° NNW 01:44:29 10° ENE
Cosmos 1066 Rocket 4.2 01:34:46 10° N 01:40:35 87° E 01:43:32 30° SSE
ATLAS 5 CENTAUR R/B 3.7 01:36:28 10° WNW 01:40:54 21° WSW 01:41:03 21° WSW
SeaSat 1 4.2 01:37:03 10° N 01:41:01 25° NW 01:44:42 11° W
Unknown 3.7 01:40:19 37° WSW 01:41:53 77° NNW 01:46:03 10° ENE
SAR-Lupe-4 3.5 01:41:12 56° SSE 01:41:54 82° ENE 01:45:30 10° NNW
Unknown 3.6 01:41:53 38° WSW 01:43:24 79° NNW 01:47:34 10° ENE
NOSS 2-2 (C) 4.1 01:42:19 30° W 01:43:48 46° NW 01:48:05 10° NNE
Falcon 9 debris 4.2 01:42:11 23° WNW 01:44:00 45° NNW 01:47:20 10° ENE
Unknown 3.6 01:43:28 38° WSW 01:45:00 80° NNW 01:49:11 10° ENE
Cosmos 1782 Rocket 3.5 01:45:37 45° SSW 01:46:56 79° W 01:51:27 10° N
Unknown 4.2 01:45:38 21° WNW 01:47:33 43° NNW 01:50:52 10° ENE
Unknown 3.7 01:46:39 35° WSW 01:48:21 77° NNW 01:52:30 10° ENE
NOSS 3-2 (C) 4.3 01:41:32 10° NW 01:48:44 48° WSW 01:53:21 25° S
Cosmos 1743 3.4 01:48:17 34° SE 01:49:29 47° E 01:53:12 10° NNE
Unknown 3.7 01:48:14 33° WSW 01:49:59 75° NNW 01:54:09 10° ENE
Unknown 3.7 01:49:48 32° WSW 01:51:37 74° NNW 01:55:47 10° ENE
Unknown 4.3 01:50:41 21° WNW 01:51:55 32° N 01:54:28 10° ENE
Unknown 4.4 01:50:40 21° WNW 01:51:57 32° N 01:54:31 10° ENE
Cosmos 1975 3.8 01:51:24 27° SE 01:53:04 41° E 01:56:56 10° NNE
Unknown 3.7 01:51:25 31° WSW 01:53:18 73° NNW 01:57:28 10° ENE
Okean 2 3.5 01:50:55 10° N 01:55:07 73° E 01:56:54 33° SSE
RESURS DK-1 3.0 01:54:45 35° SSE 01:55:55 46° ESE 01:59:56 10° NE
Unknown 3.8 01:57:49 27° W 01:59:59 68° NNW 02:04:08 10° ENE
Cosmos 1666 2.7 01:59:38 48° SW 02:00:31 66° W 02:04:23 10° N
Cosmos 1025 Rocket 4.2 01:56:48 10° N 02:00:59 40° ENE 02:04:34 13° SE
Cosmos 2151 Rocket 4.4 01:58:55 25° SSE 02:01:13 46° E 02:05:34 10° NNE
Cosmos 2154 Rocket 4.2 01:55:05 10° N 02:01:27 71° ENE 02:06:32 17° SSE
Unknown 3.9 01:59:25 26° W 02:01:39 67° NNW 02:05:48 10° ENE
USA 215 4.1 01:55:34 10° E 02:01:53 53° NNE 02:08:12 10° NW
CZ-2D R/B 2.4 01:56:53 10° NNE 02:02:19 65° ESE 02:05:21 27° S
Unknown 3.9 02:01:02 25° W 02:03:21 66° NNW 02:07:29 10° ENE
Unknown 3.9 02:02:37 24° W 02:05:00 65° NNW 02:09:09 10° ENE
CZ-4B R/B 4.0 02:04:02 10° ESE 02:06:10 17° ENE 02:08:17 10° NNE
Unknown 4.0 02:04:10 23° W 02:06:37 64° NNW 02:10:46 10° ENE
Unknown 4.0 02:05:01 22° W 02:07:32 63° NNW 02:11:41 10° ENE
Unknown 4.0 02:07:25 21° W 02:10:00 62° NNW 02:14:08 10° ENE
NOSS 3-4 (A) 3.6 02:06:29 25° SW 02:10:12 72° NW 02:16:43 10° NE
NOSS 3-4 (C) 3.6 02:06:36 25° SW 02:10:18 72° NW 02:16:49 10° NE
ARIANE 5 R/B 4.0 02:06:55 10° NE 02:11:26 30° E 02:15:34 12° SSE
Starlink (trailer) 4.0 02:08:59 21° W 02:11:39 61° NNW 02:15:47 10° ENE
Atlas Centaur 2 4.4 02:12:15 14° SSE 02:12:15 14° SSE 02:15:30 10° SE
Cosmos 1842 4.1 02:08:49 10° N 02:12:34 46° ENE 02:15:19 17° SE
Genesis I 3.4 02:11:33 39° S 02:12:51 64° SE 02:16:54 10° NE
Unknown 4.1 02:10:35 20° W 02:13:20 60° NNW 02:17:27 10° ENE
CBERS-1 4.3 02:09:18 10° NNE 02:14:25 62° ESE 02:17:27 24° S
Unknown 4.1 02:12:10 19° W 02:14:59 59° NNW 02:19:07 10° ENE
UNK 3.7 02:13:02 32° S 02:15:04 65° WSW 02:19:40 10° NNW
Cosmos 923 Rocket 4.0 02:10:56 10° NNW 02:16:17 79° WSW 02:20:18 18° SSE
Cosmos 1340 2.5 02:15:27 41° S 02:16:42 89° W 02:20:30 10° NNE
Meteor 2-15 4.4 02:13:49 25° S 02:17:31 87° E 02:23:36 10° N
Cosmos 2369 Rocket 3.9 02:15:03 10° WNW 02:18:17 16° W 02:18:57 15° WSW
Unknown 4.1 02:15:32 18° W 02:18:25 57° NNW 02:22:29 10° ENE
Cosmos 1975 Rocket 3.9 02:14:37 10° NNW 02:18:32 34° W 02:19:37 29° WSW
Unknown 4.2 02:18:33 16° W 02:21:40 56° NNW 02:25:45 10° ENE
CENTAUR R/B 3.5 02:14:47 10° NW 02:22:22 46° WSW 02:29:39 13° S
Unknown 4.2 02:20:08 16° W 02:23:20 55° NNW 02:27:25 10° ENE
Sich 1 Rocket 4.4 02:21:42 28° WSW 02:23:32 41° WNW 02:27:54 10° N
Unknown 4.3 02:21:44 15° W 02:25:01 54° NNW 02:29:06 10° ENE
Unknown 4.4 02:22:55 12° W 02:26:17 45° NNW 02:30:00 10° ENE
Unknown 4.3 02:23:20 15° W 02:26:40 54° NNW 02:30:45 10° ENE
Unknown 4.4 02:23:18 12° W 02:26:41 47° NNW 02:30:29 10° ENE
Cosmos 2184 Rocket 4.3 02:21:31 10° NNW 02:27:33 50° W 02:31:07 24° SSW
Cosmos 405 4.5 02:24:49 10° N 02:28:07 35° ENE 02:31:24 10° SE
Unknown 4.3 02:24:58 14° W 02:28:27 52° NNW 02:32:31 10° ENE
Unknown 4.3 02:26:32 14° W 02:30:01 52° NNW 02:34:05 10° ENE
ATLAS 3B R/B 3.4 02:24:24 10° NW 02:30:07 31° WSW 02:32:54 23° SSW
Unknown 4.4 02:28:08 13° W 02:31:46 51° NNW 02:35:50 10° ENE
deb Chang Zheng 4 3.6 02:27:51 10° NNE 02:32:08 76° ESE 02:34:32 25° S
Unknown 4.4 02:29:41 13° W 02:33:19 51° NNW 02:37:23 10° ENE
Unknown 4.4 02:31:18 12° W 02:35:01 51° NNW 02:39:05 10° ENE
SJ 16-02 2.7 02:34:27 13° SSE 02:37:42 32° ESE 02:41:36 10° NE
Cosmos 1346 Rocket 3.4 02:37:26 28° SW 02:39:06 43° WNW 02:42:56 10° N
Unknown 4.5 02:36:06 11° W 02:40:02 49° NNW 02:44:05 10° ENE
Cosmos 1680 Rocket 3.5 02:35:13 10° NNW 02:40:29 65° WSW 02:45:05 13° S
Unknown 4.5 02:37:39 10° W 02:41:40 49° NNW 02:45:43 10° ENE
CZ-4C R/B 3.1 02:40:43 29° S 02:42:20 58° W 02:45:55 10° NNW
Cosmos 1937 Rocket 4.4 02:39:03 14° S 02:43:09 42° ESE 02:48:06 10° NE
Unknown 4.5 02:39:20 10° W 02:43:22 48° NNW 02:47:25 10° ENE
IRS-1C 4.2 02:40:29 10° NNE 02:45:51 80° ESE 02:49:53 18° S
Cosmos 962 Rocket 4.4 02:43:20 10° N 02:49:32 81° W 02:55:33 10° S
Cosmos 1898 Rocket 3.8 02:46:28 18° S 02:50:23 67° ESE 02:55:40 10° NNE
COSMOS 2406 3.8 02:46:44 16° S 02:51:09 52° ESE 02:56:39 10° NE
AQUA 4.1 02:48:24 10° N 02:53:05 55° WNW 02:56:08 21° SW
Cosmos 2181 Rocket 4.3 02:47:13 11° S 02:53:08 68° E 02:59:17 10° NNE
Cosmos 1689 Rocket 3.2 02:53:46 10° SE 02:56:37 44° ENE 02:59:28 10° N
ATLAS 2AS CENTAUR R/B 4.1 02:49:43 10° W 02:57:14 40° NNW 03:04:38 10° NE
NPP 4.2 02:55:20 10° N 03:00:27 45° WNW 03:04:12 18° SW
SL-4 R/B 2.9 02:57:02 10° WNW 03:01:04 30° SW 03:04:52 10° SSE
IRS-1D 3.6 02:57:26 10° N 03:02:20 63° WNW 03:06:00 18° SSW
Okean 2 Rocket 4.3 03:00:55 18° WSW 03:03:20 29° WNW 03:07:12 10° N
Cosmos 1697 Rocket 3.9 02:59:03 10° NNW 03:04:30 45° NE 03:09:54 10° SE
Resurs 1-4 Rocket 2.9 03:00:25 10° N 03:05:20 40° WNW 03:09:04 16° SW
ADEOS II 2.2 03:00:47 10° NNE 03:06:04 76° ESE 03:10:59 12° S
PSLV R/B 4.5 03:07:00 18° S 03:07:00 18° S 03:08:45 10° SE
Cosmos 1536 Rocket 4.3 03:02:40 10° NNW 03:06:46 36° W 03:09:31 18° SSW
Cosmos 1378 3.7 03:03:33 10° NNW 03:07:02 38° W 03:09:08 20° SSW
H-2A R/B 3.8 03:06:16 15° WSW 03:07:41 18° W 03:10:43 10° NW
EXPRESS MD2 2.8 03:06:03 10° WNW 03:08:27 72° NNE 03:12:18 10° E
Cosmos 1833 Rocket 4.1 03:04:20 10° SSE 03:09:14 32° ESE 03:14:10 10° NE
CZ-2D R/B 4.0 03:05:18 10° NNE 03:09:38 61° ESE 03:13:58 10° S
Aureole 3 4.0 03:07:23 10° SSE 03:10:21 42° E 03:13:48 10° NNE
Cosmos 1980 Rocket 4.2 03:07:59 10° NNW 03:13:00 32° NE 03:18:00 10° ESE
Cosmos 2084 3.6 03:09:11 10° NW 03:13:13 46° SW 03:17:08 10° SSE
SL-08 R/B 3.9 03:11:40 15° SSW 03:15:08 38° W 03:19:37 10° NNW
Cosmos 1656 3.8 03:12:50 10° NNW 03:18:36 85° ENE 03:24:18 10° SSE
Milstar 3 4.3 03:17:21 13° SSW 03:19:50 15° S 03:23:45 10° SE
SL-16 R/B 3.7 03:18:31 14° SW 03:22:06 23° W 03:26:55 10° NW
Cosmos 1707 2.7 03:20:36 10° N 03:24:29 86° W 03:28:19 10° S
Unknown 4.5 03:25:08 10° WNW 03:27:41 32° N 03:30:14 10° ENE
Unknown 4.5 03:25:08 10° WNW 03:27:43 32° N 03:30:18 10° ENE
Aureole 2 Rocket 3.4 03:28:01 10° NW 03:30:36 23° WSW 03:32:21 15° SSW
Cosmos 44 3.0 03:27:02 10° NW 03:31:41 81° SW 03:36:04 10° SSE
Cosmos 2366 rocket 4.0 03:25:58 10° NNW 03:32:07 75° W 03:38:15 10° S
RESURS DK-1 4.0 03:30:47 10° WSW 03:34:11 24° NW 03:37:36 10° N
Meteor 1-28 Rocket 3.5 03:31:37 10° SSE 03:35:23 70° ENE 03:39:09 10° N
Cosmos 990 Rocket 4.2 03:31:00 13° SW 03:35:43 61° WNW 03:40:57 10° NNE
Meteor 1-15 Rocket 4.5 03:30:48 10° S 03:36:27 72° E 03:42:02 10° NNE
Cosmos 1025 Rocket 4.5 03:34:56 10° NW 03:38:19 22° W 03:41:25 11° SW
CZ-4B R/B 2.3 03:36:06 12° SSW 03:38:25 27° W 03:41:07 10° NW
CZ-2D R/B 3.7 03:37:45 10° N 03:41:56 23° WNW 03:46:07 10° WSW
Cosmos 158 Rocket 4.4 03:39:41 10° NW 03:44:24 41° WSW 03:49:13 10° S
USA 215 3.2 03:38:14 10° SE 03:44:45 73° SW 03:51:20 10° WNW
Cosmos 1544 3.7 03:41:29 11° SW 03:44:46 40° WNW 03:48:18 10° N
Cosmos 2082 Rocket 3.2 03:42:11 10° S 03:47:28 45° ESE 03:52:48 10° NE
Cosmos 2218 Rocket 4.2 03:42:55 10° NNW 03:48:55 53° W 03:54:58 10° SSW
ARIANE 5 R/B 3.2 03:45:51 10° N 03:50:39 42° WNW 03:55:29 10° SW
Okean 1 Rocket 4.1 03:48:27 10° SW 03:52:28 32° WNW 03:56:30 10° N
PSLV R/B 4.5 03:48:35 10° NNE 03:52:40 47° E 03:56:44 10° S
Cosmos 44 Rocket 4.2 03:49:44 10° NNW 03:54:30 53° NE 03:59:08 10° SE
Cosmos 2369 3.7 03:52:50 10° NNW 03:58:30 70° WSW 04:04:05 10° SSE
Atlas Centaur 2 4.1 03:55:40 10° SW 04:00:02 17° S 04:03:57 10° SE
Cosmos 2298 Rocket 4.1 03:55:20 10° SSW 04:00:38 85° WNW 04:05:59 10° NNE
Cosmos 1821 Rocket 4.4 03:54:51 10° N 04:01:15 75° E 04:07:38 10° SSE
Cosmos 1766 4.0 04:00:37 10° S 04:04:24 54° E 04:08:14 10° NNE
Cosmos 2360 4.5 03:58:55 10° NNW 04:04:38 79° ENE 04:10:20 10° SSE
